• In Deutschland
  • Länderverzeichnis
  • Für 7 Tage
  • Wassertemperatur
  • Satellitenkarten
  • Wetterkarte
  • Widgets
  • user-avatar
    Anmelden

    Stündliche Wetter Asadabad

    Heute, 21 Januar, Sonntag

    Zeit Temperatur Niederschläge Wind Luftdruck Luftfeuchtigkeit
    00:00 +8°C° 0 mm 3 m/S 656 mmHg 17%
    01:00 +8°C° 0 mm 3 m/S 656 mmHg 16%
    02:00 +8°C° 0 mm 3 m/S 656 mmHg 15%
    03:00 +7°C° 0 mm 3 m/S 656 mmHg 15%
    04:00 +7°C° 0 mm 3 m/S 655 mmHg 15%
    05:00 +7°C° 0 mm 3 m/S 655 mmHg 14%
    06:00 +7°C° 0 mm 3 m/S 655 mmHg 14%
    07:00 +7°C° 0 mm 3 m/S 655 mmHg 14%
    08:00 +6°C° 0 mm 4 m/S 655 mmHg 14%
    09:00 +10°C° 0 mm 3 m/S 656 mmHg 13%
    10:00 +14°C° 0 mm 2 m/S 657 mmHg 12%
    11:00 +17°C° 0 mm 2 m/S 658 mmHg 12%
    12:00 +18°C° 0 mm 2 m/S 658 mmHg 11%
    13:00 +18°C° 0 mm 2 m/S 658 mmHg 11%
    14:00 +19°C° 0 mm 2 m/S 658 mmHg 11%
    15:00 +18°C° 0 mm 1 m/S 657 mmHg 14%
    16:00 +16°C° 0 mm 1 m/S 657 mmHg 17%
    17:00 +14°C° 0 mm 1 m/S 657 mmHg 20%
    18:00 +13°C° 0 mm 1 m/S 657 mmHg 20%
    19:00 +10°C° 0 mm 2 m/S 657 mmHg 20%
    20:00 +9°C° 0 mm 3 m/S 657 mmHg 20%
    21:00 +8°C° 0 mm 3 m/S 657 mmHg 20%
    22:00 +8°C° 0 mm 3 m/S 657 mmHg 20%
    23:00 +7°C° 0 mm 3 m/S 657 mmHg 20%

    Morgen, 22 Januar, Montag

    Zeit Temperatur Niederschläge Wind Luftdruck Luftfeuchtigkeit
    00:00 +7°C° 0 mm 3 m/S 657 mmHg 20%
    01:00 +7°C° 0 mm 3 m/S 657 mmHg 19%
    02:00 +7°C° 0 mm 3 m/S 656 mmHg 19%
    03:00 +5°C° 0 mm 3 m/S 656 mmHg 18%
    04:00 +5°C° 0 mm 3 m/S 656 mmHg 18%
    05:00 +5°C° 0 mm 3 m/S 656 mmHg 18%
    06:00 +5°C° 0 mm 3 m/S 656 mmHg 18%
    07:00 +5°C° 0 mm 3 m/S 656 mmHg 18%
    08:00 +5°C° 0 mm 4 m/S 656 mmHg 17%
    09:00 +9°C° 0 mm 3 m/S 656 mmHg 16%
    10:00 +12°C° 0 mm 3 m/S 657 mmHg 14%
    11:00 +15°C° 0 mm 2 m/S 657 mmHg 12%
    12:00 +16°C° 0 mm 2 m/S 657 mmHg 12%
    13:00 +16°C° 0 mm 2 m/S 656 mmHg 12%
    14:00 +17°C° 0 mm 2 m/S 656 mmHg 12%
    15:00 +16°C° 0 mm 2 m/S 656 mmHg 14%
    16:00 +15°C° 0 mm 1 m/S 655 mmHg 17%
    17:00 +13°C° 0 mm 1 m/S 655 mmHg 19%
    18:00 +12°C° 0 mm 2 m/S 655 mmHg 20%
    19:00 +9°C° 0 mm 2 m/S 655 mmHg 21%
    20:00 +8°C° 0 mm 3 m/S 656 mmHg 21%
    21:00 +7°C° 0 mm 3 m/S 655 mmHg 21%
    22:00 +7°C° 0 mm 3 m/S 655 mmHg 21%
    23:00 +5°C° 0 mm 3 m/S 655 mmHg 21%

    übermorgen, 23 Januar, Dienstag

    Zeit Temperatur Niederschläge Wind Luftdruck Luftfeuchtigkeit
    00:00 +5°C° 0 mm 3 m/S 655 mmHg 20%
    01:00 +5°C° 0 mm 3 m/S 655 mmHg 20%
    02:00 +4°C° 0 mm 3 m/S 655 mmHg 19%
    03:00 +4°C° 0 mm 3 m/S 655 mmHg 19%
    04:00 +4°C° 0 mm 3 m/S 655 mmHg 19%
    05:00 +3°C° 0 mm 3 m/S 655 mmHg 19%
    06:00 +4°C° 0 mm 3 m/S 655 mmHg 19%
    07:00 +4°C° 0 mm 3 m/S 655 mmHg 19%
    08:00 +4°C° 0 mm 3 m/S 656 mmHg 19%
    09:00 +7°C° 0 mm 3 m/S 656 mmHg 17%
    10:00 +9°C° 0 mm 2 m/S 656 mmHg 15%
    11:00 +12°C° 0 mm 2 m/S 657 mmHg 13%
    12:00 +13°C° 0 mm 2 m/S 656 mmHg 13%
    13:00 +13°C° 0 mm 2 m/S 656 mmHg 14%
    14:00 +14°C° 0 mm 2 m/S 656 mmHg 14%
    15:00 +13°C° 0 mm 2 m/S 655 mmHg 17%
    16:00 +12°C° 0 mm 2 m/S 655 mmHg 19%
    17:00 +12°C° 0 mm 1 m/S 655 mmHg 21%
    18:00 +9°C° 0 mm 2 m/S 655 mmHg 22%
    19:00 +8°C° 0 mm 2 m/S 655 mmHg 23%
    20:00 +7°C° 0 mm 3 m/S 655 mmHg 24%
    21:00 +5°C° 0 mm 3 m/S 655 mmHg 24%
    22:00 +5°C° 0 mm 3 m/S 655 mmHg 24%
    23:00 +4°C° 0 mm 3 m/S 655 mmHg 24%

    24 Januar, Mittwoch

    Zeit Temperatur Niederschläge Wind Luftdruck Luftfeuchtigkeit
    00:00 +4°C° 0 mm 3 m/S 655 mmHg 24%
    01:00 +4°C° 0 mm 3 m/S 654 mmHg 23%
    02:00 +4°C° 0 mm 3 m/S 654 mmHg 22%
    03:00 +3°C° 0 mm 3 m/S 654 mmHg 21%
    04:00 +3°C° 0 mm 3 m/S 653 mmHg 20%
    05:00 +3°C° 0 mm 3 m/S 653 mmHg 20%
    06:00 +3°C° 0 mm 3 m/S 653 mmHg 19%
    07:00 +4°C° 0 mm 2 m/S 654 mmHg 19%
    08:00 +4°C° 0 mm 2 m/S 654 mmHg 18%
    09:00 +7°C° 0 mm 2 m/S 654 mmHg 16%
    10:00 +10°C° 0 mm 1 m/S 655 mmHg 14%
    11:00 +13°C° 0 mm 1 m/S 656 mmHg 12%
    12:00 +13°C° 0 mm 1 m/S 655 mmHg 13%
    13:00 +14°C° 0 mm 1 m/S 655 mmHg 13%
    14:00 +14°C° 0 mm 2 m/S 655 mmHg 13%
    15:00 +13°C° 0 mm 1 m/S 654 mmHg 16%
    16:00 +12°C° 0 mm 1 m/S 654 mmHg 19%
    17:00 +12°C° 0 mm 1 m/S 654 mmHg 21%
    18:00 +10°C° 0 mm 1 m/S 654 mmHg 22%
    19:00 +9°C° 0 mm 1 m/S 655 mmHg 23%
    20:00 +7°C° 0 mm 1 m/S 655 mmHg 25%
    21:00 +6°C° 0 mm 2 m/S 655 mmHg 25%
    22:00 +5°C° 0 mm 2 m/S 655 mmHg 25%
    23:00 +5°C° 0 mm 2 m/S 655 mmHg 25%

    25 Januar, Donnerstag

    Zeit Temperatur Niederschläge Wind Luftdruck Luftfeuchtigkeit
    00:00 +5°C° 0 mm 2 m/S 655 mmHg 25%
    01:00 +5°C° 0 mm 2 m/S 655 mmHg 25%
    02:00 +4°C° 0 mm 2 m/S 654 mmHg 25%
    03:00 +4°C° 0 mm 2 m/S 654 mmHg 25%
    04:00 +4°C° 0 mm 2 m/S 654 mmHg 25%
    05:00 +4°C° 0 mm 2 m/S 654 mmHg 25%
    06:00 +4°C° 0 mm 2 m/S 654 mmHg 26%
    07:00 +4°C° 0 mm 2 m/S 654 mmHg 26%
    08:00 +4°C° 0 mm 2 m/S 655 mmHg 26%
    09:00 +7°C° 0 mm 2 m/S 655 mmHg 23%
    10:00 +9°C° 0 mm 2 m/S 656 mmHg 21%
    11:00 +12°C° 0 mm 1 m/S 656 mmHg 18%
    12:00 +13°C° 0 mm 1 m/S 656 mmHg 18%
    13:00 +13°C° 0 mm 2 m/S 655 mmHg 18%
    14:00 +14°C° 0 mm 2 m/S 655 mmHg 17%
    15:00 +13°C° 0 mm 1 m/S 655 mmHg 20%
    16:00 +12°C° 0 mm 1 m/S 655 mmHg 23%
    17:00 +12°C° 0 mm 1 m/S 655 mmHg 25%
    18:00 +10°C° 0 mm 1 m/S 655 mmHg 26%
    19:00 +8°C° 0 mm 2 m/S 655 mmHg 28%
    20:00 +7°C° 0 mm 2 m/S 656 mmHg 29%
    21:00 +7°C° 0 mm 2 m/S 656 mmHg 29%
    22:00 +5°C° 0 mm 3 m/S 656 mmHg 29%
    23:00 +5°C° 0 mm 3 m/S 656 mmHg 30%

    26 Januar, Freitag

    Zeit Temperatur Niederschläge Wind Luftdruck Luftfeuchtigkeit
    00:00 +4°C° 0 mm 3 m/S 656 mmHg 30%
    01:00 +3°C° 0 mm 3 m/S 656 mmHg 30%
    02:00 +3°C° 0 mm 3 m/S 656 mmHg 30%
    03:00 +3°C° 0 mm 3 m/S 656 mmHg 29%
    04:00 +2°C° 0 mm 3 m/S 656 mmHg 29%
    05:00 +2°C° 0 mm 3 m/S 656 mmHg 29%
    06:00 +2°C° 0 mm 3 m/S 656 mmHg 28%
    07:00 +2°C° 0 mm 3 m/S 657 mmHg 27%
    08:00 +2°C° 0 mm 3 m/S 657 mmHg 27%
    09:00 +5°C° 0 mm 3 m/S 657 mmHg 24%
    10:00 +8°C° 0 mm 2 m/S 657 mmHg 21%
    11:00 +11°C° 0 mm 1 m/S 657 mmHg 18%
    12:00 +12°C° 0 mm 2 m/S 657 mmHg 18%
    13:00 +12°C° 0 mm 2 m/S 656 mmHg 17%
    14:00 +13°C° 0 mm 2 m/S 656 mmHg 17%
    15:00 +12°C° 0 mm 2 m/S 656 mmHg 19%
    16:00 +12°C° 0 mm 2 m/S 655 mmHg 21%
    17:00 +11°C° 0 mm 1 m/S 655 mmHg 23%
    18:00 +9°C° 0 mm 2 m/S 656 mmHg 24%
    19:00 +7°C° 0 mm 2 m/S 656 mmHg 26%
    20:00 +5°C° 0 mm 2 m/S 656 mmHg 28%
    21:00 +5°C° 0 mm 2 m/S 656 mmHg 27%
    22:00 +4°C° 0 mm 3 m/S 656 mmHg 27%
    23:00 +3°C° 0 mm 3 m/S 656 mmHg 27%
    Mehr zeigen